QPF
0.05 0.06 0.09 0.15 0.21 0.28 0.33 0.39 0.50 0.55 0.56 0.62 0.66 0.69 0.63 0.61 0.59 0.52 0.45 0.36 0.26 0.20 0.17 0.09 0.04 0.02 0.01 0.01 0.00 0.00 0.01 0.01 0.02 0.01 0.01 0.00 0.00 0.00 0.01 0.02 0.02 0.02 0.03
0.07 0.07 0.09 0.12 0.15 0.16 0.21 0.32 0.42 0.50 0.51 0.54 0.53 0.54 0.53 0.46 0.37 0.33 0.30 0.24 0.17 0.13 0.10 0.06 0.03 0.02 0.01 0.00 0.00 0.00 0.00 0.00 0.01 0.01 0.01 0.00 0.01 0.00 0.00 0.00 0.01 0.02 0.02
0.09 0.10 0.10 0.11 0.12 0.13 0.16 0.19 0.23 0.29 0.30 0.31 0.32 0.30 0.32 0.31 0.30 0.25 0.20 0.16 0.12 0.10 0.08 0.05 0.03 0.02 0.01 0.01 0.00 0.00 0.00 0.00 0.00 0.00 0.00 0.00 0.00 0.00 0.00 0.00 0.01 0.00 0.01
0.10 0.09 0.09 0.09 0.09 0.09 0.08 0.09 0.09 0.10 0.11 0.13 0.17 0.18 0.19 0.21 0.20 0.18 0.14 0.12 0.11 0.09 0.08 0.06 0.04 0.03 0.02 0.01 0.01 0.00 0.00 0.00 0.00 0.00 0.00 0.00 0.00 0.00 0.00 0.00 0.00 0.00 0.00
0.08 0.08 0.07 0.07 0.06 0.07 0.06 0.06 0.07 0.07 0.09 0.10 0.12 0.15 0.17 0.16 0.15 0.14 0.13 0.13 0.12 0.11 0.09 0.09 0.07 0.05 0.03 0.02 0.01 0.01 0.00 0.00 0.00 0.00 0.00 0.00 0.00 0.00 0.00 0.00 0.00 0.00 0.00
0.07 0.08 0.06 0.06 0.05 0.05 0.06 0.07 0.07 0.07 0.07 0.09 0.10 0.11 0.13 0.13 0.11 0.11 0.12 0.13 0.14 0.13 0.12 0.11 0.10 0.08 0.06 0.05 0.05 0.04 0.02 0.01 0.01 0.00 0.00 0.00 0.00 0.00 0.00 0.00 0.00 0.00 0.00
0.05 0.06 0.06 0.04 0.04 0.03 0.04 0.04 0.04 0.05 0.05 0.05 0.05 0.05 0.06 0.07 0.08 0.09 0.08 0.09 0.09 0.09 0.10 0.10 0.10 0.10 0.10 0.10 0.10 0.07 0.05 0.03 0.02 0.01 0.01 0.00 0.00 0.00 0.00 0.00 0.00 0.00 0.00
0.02 0.02 0.03 0.02 0.02 0.02 0.02 0.01 0.01 0.02 0.02 0.02 0.02 0.02 0.03 0.03 0.03 0.04 0.04 0.04 0.04 0.05 0.05 0.06 0.06 0.07 0.08 0.08 0.09 0.08 0.07 0.05 0.04 0.03 0.02 0.02 0.01 0.01 0.00 0.00 0.00 0.00 0.00
0.01 0.01 0.01 0.01 0.01 0.00 0.00 0.00 0.00 0.00 0.00 0.00 0.00 0.01 0.01 0.01 0.01 0.01 0.01 0.01 0.01 0.02 0.02 0.02 0.02 0.03 0.04 0.05 0.06 0.06 0.07 0.06 0.04 0.03 0.03 0.03 0.03 0.03 0.02 0.01 0.01 0.01 0.00
0.00 0.00 0.00 0.00 0.00 0.00 0.00 0.00 0.00 0.00 0.00 0.00 0.00 0.00 0.00 0.00 0.01 0.01 0.01 0.01 0.01 0.01 0.01 0.01 0.01 0.01 0.01 0.02 0.03 0.04 0.05 0.05 0.04 0.03 0.04 0.03 0.04 0.04 0.04 0.02 0.01 0.01 0.01
0.00 0.00 0.00 0.00 0.00 0.00 0.00 0.00 0.00 0.00 0.00 0.00 0.00 0.00 0.00 0.00 0.00 0.00 0.00 0.01 0.01 0.01 0.01 0.01 0.01 0.01 0.01 0.02 0.02 0.02 0.02 0.03 0.03 0.02 0.02 0.02 0.03 0.03 0.03 0.03 0.02 0.01 0.01
0.00 0.00 0.00 0.00 0.00 0.00 0.00 0.00 0.00 0.00 0.00 0.00 0.00 0.00 0.00 0.00 0.00 0.00 0.00 0.00 0.00 0.00 0.01 0.01 0.01 0.01 0.01 0.01 0.01 0.02 0.02 0.03 0.04 0.04 0.03 0.02 0.01 0.01 0.01 0.02 0.03 0.02 0.02
0.00 0.00 0.00 0.00 0.00 0.00 0.00 0.00 0.00 0.00 0.00 0.00 0.00 0.00 0.00 0.00 0.00 0.00 0.00 0.00 0.00 0.00 0.00 0.00 0.00 0.01 0.02 0.02 0.02 0.02 0.02 0.02 0.03 0.04 0.05 0.05 0.04 0.02 0.01 0.01 0.01 0.02 0.02
0.00 0.00 0.00 0.00 0.00 0.00 0.00 0.00 0.00 0.00 0.00 0.00 0.00 0.00 0.00 0.00 0.00 0.00 0.00 0.00 0.00 0.00 0.00 0.00 0.00 0.00 0.00 0.01 0.02 0.03 0.02 0.01 0.02 0.02 0.03 0.05 0.07 0.05 0.03 0.02 0.01 0.02 0.02
0.00 0.00 0.00 0.00 0.00 0.00 0.00 0.00 0.00 0.00 0.00 0.00 0.00 0.00 0.00 0.00 0.00 0.00 0.00 0.00 0.00 0.00 0.00 0.00 0.00 0.00 0.00 0.00 0.00 0.01 0.01 0.01 0.01 0.01 0.02 0.02 0.03 0.05 0.06 0.04 0.02 0.02 0.01
0.00 0.00 0.00 0.00 0.00 0.00 0.00 0.00 0.00 0.00 0.00 0.00 0.00 0.00 0.00 0.00 0.00 0.00 0.00 0.00 0.00 0.00 0.00 0.00 0.00 0.00 0.00 0.00 0.00 0.00 0.00 0.00 0.01 0.01 0.01 0.01 0.02 0.03 0.04 0.04 0.02 0.02 0.01
0.00 0.00 0.00 0.00 0.00 0.00 0.00 0.00 0.00 0.00 0.00 0.00 0.00 0.00 0.00 0.00 0.00 0.00 0.00 0.00 0.00 0.00 0.00 0.00 0.00 0.00 0.00 0.00 0.00 0.00 0.00 0.00 0.00 0.01 0.01 0.01 0.01 0.02 0.03 0.03 0.02 0.01 0.01
0.00 0.00 0.00 0.00 0.00 0.00 0.00 0.00 0.00 0.00 0.00 0.00 0.00 0.00 0.01 0.01 0.01 0.01 0.00 0.00 0.00 0.00 0.00 0.00 0.00 0.00 0.00 0.00 0.00 0.00 0.00 0.00 0.01 0.01 0.01 0.01 0.01 0.02 0.02 0.03 0.02 0.01 0.01
0.00 0.00 0.00 0.00 0.00 0.00 0.00 0.00 0.00 0.00 0.00 0.00 0.01 0.01 0.01 0.02 0.01 0.01 0.01 0.01 0.01 0.01 0.00 0.00 0.00 0.00 0.00 0.00 0.00 0.00 0.00 0.00 0.00 0.01 0.01 0.01 0.01 0.03 0.04 0.03 0.02 0.02 0.01
0.00 0.00 0.00 0.00 0.00 0.00 0.00 0.00 0.00 0.00 0.01 0.01 0.01 0.02 0.02 0.02 0.02 0.02 0.02 0.01 0.01 0.01 0.01 0.00 0.00 0.00 0.00 0.00 0.00 0.00 0.00 0.00 0.01 0.01 0.01 0.02 0.02 0.03 0.04 0.04 0.03 0.03 0.02
0.00 0.00 0.00 0.00 0.00 0.00 0.00 0.00 0.00 0.01 0.01 0.02 0.02 0.03 0.03 0.03 0.03 0.03 0.03 0.03 0.02 0.01 0.01 0.01 0.00 0.00 0.00 0.00 0.00 0.00 0.00 0.00 0.01 0.02 0.02 0.02 0.03 0.04 0.05 0.05 0.05 0.05 0.05
0.00 0.00 0.00 0.00 0.00 0.00 0.01 0.01 0.01 0.02 0.02 0.03 0.03 0.03 0.04 0.05 0.06 0.05 0.05 0.04 0.03 0.02 0.01 0.01 0.00 0.00 0.00 0.00 0.00 0.00 0.00 0.01 0.02 0.02 0.03 0.03 0.04 0.06 0.07 0.06 0.06 0.08 0.08
0.00 0.00 0.00 0.00 0.00 0.00 0.01 0.02 0.02 0.03 0.03 0.03 0.03 0.03 0.03 0.04 0.05 0.05 0.05 0.04 0.03 0.02 0.02 0.01 0.01 0.00 0.00 0.00 0.00 0.00 0.00 0.01 0.02 0.02 0.04 0.05 0.06 0.07 0.08 0.08 0.08 0.08 0.08
0.00 0.00 0.00 0.00 0.01 0.01 0.01 0.02 0.03 0.04 0.04 0.04 0.03 0.03 0.03 0.03 0.03 0.04 0.04 0.04 0.03 0.02 0.01 0.01 0.01 0.00 0.00 0.00 0.00 0.00 0.00 0.01 0.03 0.03 0.05 0.07 0.08 0.10 0.12 0.11 0.10 0.09 0.09
0.00 0.00 0.00 0.01 0.01 0.01 0.02 0.02 0.04 0.05 0.04 0.04 0.04 0.04 0.03 0.03 0.03 0.03 0.03 0.03 0.02 0.02 0.01 0.01 0.01 0.01 0.00 0.00 0.00 0.00 0.01 0.02 0.04 0.06 0.07 0.09 0.11 0.13 0.17 0.15 0.14 0.11 0.11
0.00 0.00 0.01 0.01 0.01 0.02 0.02 0.04 0.05 0.05 0.06 0.06 0.05 0.04 0.03 0.03 0.03 0.02 0.02 0.02 0.02 0.02 0.02 0.01 0.01 0.00 0.00 0.00 0.00 0.01 0.01 0.02 0.05 0.09 0.11 0.14 0.17 0.18 0.20 0.20 0.17 0.13 0.12
MSLP
1011.51 1011.43 1011.35 1011.23 1011.06 1010.84 1010.58 1010.29 1010.00 1009.75 1009.53 1009.39 1009.30 1009.27 1009.29 1009.35 1009.41 1009.49 1009.56 1009.63 1009.70 1009.79 1009.90 1010.05 1010.24 1010.48 1010.76 1011.07 1011.41 1011.75 1012.06 1012.33 1012.54 1012.66 1012.70 1012.64 1012.50 1012.29 1012.03 1011.76 1011.50 1011.29 1011.14
1011.90 1011.79 1011.66 1011.51 1011.31 1011.06 1010.77 1010.48 1010.20 1009.98 1009.81 1009.71 1009.67 1009.67 1009.70 1009.74 1009.76 1009.78 1009.78 1009.77 1009.77 1009.80 1009.86 1009.98 1010.14 1010.37 1010.64 1010.94 1011.27 1011.61 1011.93 1012.21 1012.44 1012.59 1012.66 1012.63 1012.52 1012.34 1012.10 1011.83 1011.56 1011.31 1011.13
1012.13 1012.04 1011.93 1011.79 1011.58 1011.32 1011.03 1010.74 1010.48 1010.28 1010.15 1010.10 1010.11 1010.16 1010.21 1010.25 1010.26 1010.23 1010.16 1010.09 1010.01 1009.96 1009.96 1010.01 1010.13 1010.31 1010.54 1010.81 1011.12 1011.43 1011.74 1012.02 1012.25 1012.43 1012.53 1012.55 1012.49 1012.35 1012.15 1011.91 1011.65 1011.41 1011.21
1012.27 1012.24 1012.19 1012.07 1011.89 1011.64 1011.34 1011.04 1010.78 1010.59 1010.49 1010.48 1010.52 1010.61 1010.69 1010.75 1010.75 1010.69 1010.59 1010.45 1010.31 1010.19 1010.12 1010.10 1010.16 1010.28 1010.45 1010.68 1010.95 1011.23 1011.51 1011.78 1012.01 1012.20 1012.33 1012.39 1012.37 1012.29 1012.14 1011.95 1011.74 1011.52 1011.32
1012.38 1012.43 1012.44 1012.38 1012.22 1011.97 1011.66 1011.34 1011.06 1010.86 1010.75 1010.75 1010.82 1010.93 1011.04 1011.11 1011.12 1011.06 1010.93 1010.76 1010.57 1010.40 1010.26 1010.19 1010.19 1010.25 1010.38 1010.57 1010.79 1011.03 1011.28 1011.52 1011.74 1011.92 1012.06 1012.14 1012.17 1012.13 1012.05 1011.92 1011.76 1011.58 1011.40
1012.50 1012.62 1012.70 1012.68 1012.54 1012.28 1011.95 1011.60 1011.27 1011.03 1010.90 1010.88 1010.95 1011.07 1011.19 1011.28 1011.30 1011.24 1011.11 1010.93 1010.72 1010.52 1010.35 1010.24 1010.20 1010.23 1010.33 1010.47 1010.65 1010.86 1011.06 1011.27 1011.45 1011.61 1011.74 1011.82 1011.87 1011.87 1011.83 1011.76 1011.66 1011.54 1011.40
1012.63 1012.81 1012.93 1012.94 1012.80 1012.53 1012.17 1011.76 1011.39 1011.10 1010.92 1010.87 1010.91 1011.02 1011.15 1011.24 1011.28 1011.23 1011.11 1010.94 1010.73 1010.53 1010.36 1010.25 1010.20 1010.21 1010.29 1010.41 1010.56 1010.73 1010.89 1011.05 1011.18 1011.30 1011.39 1011.45 1011.49 1011.51 1011.50 1011.48 1011.43 1011.37 1011.29
1012.76 1012.96 1013.09 1013.10 1012.95 1012.66 1012.26 1011.82 1011.39 1011.05 1010.83 1010.73 1010.75 1010.83 1010.95 1011.04 1011.09 1011.06 1010.96 1010.81 1010.62 1010.45 1010.30 1010.20 1010.17 1010.20 1010.27 1010.38 1010.51 1010.64 1010.76 1010.86 1010.94 1010.99 1011.03 1011.05 1011.06 1011.07 1011.07 1011.08 1011.08 1011.08 1011.06
1012.83 1013.01 1013.13 1013.12 1012.95 1012.63 1012.21 1011.74 1011.29 1010.91 1010.65 1010.52 1010.50 1010.55 1010.65 1010.73 1010.78 1010.76 1010.68 1010.56 1010.42 1010.28 1010.18 1010.12 1010.12 1010.17 1010.26 1010.37 1010.48 1010.58 1010.66 1010.70 1010.72 1010.70 1010.67 1010.63 1010.60 1010.58 1010.58 1010.60 1010.63 1010.68 1010.73
1012.82 1012.94 1013.01 1012.96 1012.76 1012.43 1012.00 1011.52 1011.06 1010.68 1010.40 1010.25 1010.20 1010.22 1010.29 1010.36 1010.39 1010.38 1010.33 1010.24 1010.14 1010.05 1010.00 1009.99 1010.03 1010.11 1010.22 1010.33 1010.44 1010.51 1010.55 1010.54 1010.49 1010.41 1010.31 1010.22 1010.13 1010.08 1010.06 1010.08 1010.14 1010.22 1010.33
1012.70 1012.74 1012.73 1012.62 1012.39 1012.04 1011.62 1011.16 1010.73 1010.36 1010.09 1009.92 1009.85 1009.85 1009.88 1009.92 1009.94 1009.93 1009.89 1009.83 1009.77 1009.74 1009.74 1009.78 1009.87 1009.98 1010.11 1010.23 1010.32 1010.37 1010.37 1010.32 1010.23 1010.10 1009.95 1009.81 1009.68 1009.59 1009.55 1009.56 1009.63 1009.74 1009.89
1012.50 1012.43 1012.32 1012.14 1011.86 1011.51 1011.10 1010.68 1010.28 1009.95 1009.70 1009.53 1009.44 1009.40 1009.40 1009.40 1009.39 1009.38 1009.35 1009.32 1009.30 1009.32 1009.37 1009.46 1009.59 1009.73 1009.87 1009.99 1010.07 1010.11 1010.09 1010.01 1009.89 1009.74 1009.56 1009.39 1009.24 1009.13 1009.07 1009.07 1009.13 1009.25 1009.43
1012.25 1012.05 1011.83 1011.57 1011.25 1010.88 1010.49 1010.10 1009.75 1009.45 1009.21 1009.04 1008.93 1008.85 1008.80 1008.76 1008.72 1008.69 1008.66 1008.66 1008.69 1008.75 1008.85 1008.99 1009.14 1009.31 1009.46 1009.58 1009.66 1009.68 1009.65 1009.57 1009.45 1009.29 1009.12 1008.95 1008.80 1008.68 1008.61 1008.60 1008.65 1008.77 1008.94
1011.98 1011.67 1011.34 1010.99 1010.61 1010.22 1009.84 1009.47 1009.14 1008.86 1008.63 1008.44 1008.29 1008.17 1008.06 1007.97 1007.90 1007.84 1007.82 1007.84 1007.90 1008.01 1008.16 1008.33 1008.52 1008.70 1008.85 1008.97 1009.05 1009.07 1009.05 1008.98 1008.88 1008.75 1008.61 1008.47 1008.34 1008.23 1008.16 1008.14 1008.16 1008.26 1008.42
1011.75 1011.32 1010.88 1010.45 1010.01 1009.59 1009.19 1008.82 1008.50 1008.22 1007.97 1007.74 1007.54 1007.36 1007.19 1007.04 1006.93 1006.85 1006.83 1006.87 1006.97 1007.12 1007.31 1007.52 1007.72 1007.92 1008.07 1008.19 1008.27 1008.30 1008.29 1008.25 1008.19 1008.11 1008.03 1007.93 1007.84 1007.76 1007.69 1007.65 1007.65 1007.71 1007.83
1011.56 1011.04 1010.51 1009.99 1009.49 1009.03 1008.60 1008.22 1007.88 1007.57 1007.28 1007.00 1006.73 1006.47 1006.23 1006.03 1005.87 1005.78 1005.76 1005.82 1005.95 1006.13 1006.35 1006.59 1006.82 1007.02 1007.17 1007.29 1007.36 1007.40 1007.42 1007.42 1007.41 1007.40 1007.37 1007.34 1007.29 1007.24 1007.18 1007.12 1007.09 1007.10 1007.17
1011.41 1010.81 1010.21 1009.63 1009.07 1008.57 1008.11 1007.70 1007.32 1006.96 1006.62 1006.27 1005.93 1005.60 1005.29 1005.03 1004.83 1004.72 1004.70 1004.77 1004.92 1005.14 1005.39 1005.64 1005.88 1006.08 1006.23 1006.34 1006.42 1006.47 1006.51 1006.55 1006.59 1006.64 1006.68 1006.70 1006.70 1006.67 1006.61 1006.54 1006.47 1006.43 1006.44
1011.27 1010.63 1009.98 1009.35 1008.75 1008.21 1007.71 1007.27 1006.84 1006.44 1006.04 1005.63 1005.21 1004.82 1004.45 1004.14 1003.91 1003.78 1003.76 1003.84 1004.01 1004.24 1004.51 1004.77 1005.00 1005.20 1005.35 1005.45 1005.52 1005.58 1005.64 1005.71 1005.79 1005.88 1005.97 1006.04 1006.07 1006.06 1006.01 1005.91 1005.80 1005.71 1005.66
1011.09 1010.43 1009.75 1009.10 1008.48 1007.91 1007.39 1006.91 1006.46 1006.01 1005.56 1005.10 1004.64 1004.19 1003.78 1003.44 1003.19 1003.05 1003.03 1003.12 1003.29 1003.53 1003.79 1004.05 1004.27 1004.45 1004.58 1004.67 1004.74 1004.79 1004.86 1004.95 1005.06 1005.18 1005.30 1005.39 1005.44 1005.43 1005.36 1005.25 1005.11 1004.97 1004.87
1010.86 1010.18 1009.50 1008.83 1008.20 1007.62 1007.08 1006.58 1006.10 1005.63 1005.15 1004.67 1004.18 1003.72 1003.30 1002.95 1002.70 1002.56 1002.54 1002.62 1002.79 1003.02 1003.27 1003.51 1003.71 1003.87 1003.97 1004.04 1004.09 1004.14 1004.21 1004.30 1004.42 1004.54 1004.67 1004.76 1004.81 1004.80 1004.71 1004.58 1004.41 1004.24 1004.11
1010.53 1009.85 1009.16 1008.49 1007.85 1007.26 1006.71 1006.20 1005.71 1005.23 1004.75 1004.27 1003.80 1003.34 1002.94 1002.61 1002.38 1002.25 1002.24 1002.32 1002.48 1002.69 1002.91 1003.12 1003.30 1003.42 1003.51 1003.55 1003.59 1003.62 1003.67 1003.75 1003.86 1003.97 1004.08 1004.16 1004.20 1004.16 1004.07 1003.91 1003.73 1003.56 1003.42
1010.12 1009.42 1008.71 1008.02 1007.37 1006.76 1006.20 1005.68 1005.19 1004.72 1004.26 1003.81 1003.38 1002.97 1002.62 1002.33 1002.14 1002.04 1002.04 1002.12 1002.27 1002.46 1002.65 1002.83 1002.97 1003.07 1003.13 1003.15 1003.17 1003.18 1003.22 1003.28 1003.36 1003.45 1003.53 1003.58 1003.59 1003.54 1003.43 1003.27 1003.10 1002.93 1002.82
1009.63 1008.89 1008.15 1007.42 1006.73 1006.09 1005.50 1004.97 1004.48 1004.03 1003.60 1003.20 1002.83 1002.50 1002.22 1002.00 1001.86 1001.81 1001.84 1001.93 1002.07 1002.24 1002.41 1002.55 1002.66 1002.74 1002.77 1002.78 1002.77 1002.77 1002.78 1002.82 1002.87 1002.93 1002.98 1003.00 1002.99 1002.92 1002.81 1002.67 1002.52 1002.39 1002.32
1009.09 1008.29 1007.48 1006.68 1005.93 1005.23 1004.60 1004.04 1003.55 1003.11 1002.73 1002.39 1002.09 1001.85 1001.66 1001.53 1001.47 1001.48 1001.54 1001.65 1001.80 1001.95 1002.10 1002.23 1002.31 1002.36 1002.38 1002.37 1002.35 1002.33 1002.32 1002.33 1002.36 1002.39 1002.41 1002.41 1002.38 1002.31 1002.22 1002.10 1002.00 1001.93 1001.93
1008.54 1007.65 1006.74 1005.86 1005.02 1004.24 1003.55 1002.95 1002.44 1002.01 1001.66 1001.39 1001.18 1001.03 1000.94 1000.91 1000.94 1001.01 1001.13 1001.27 1001.42 1001.58 1001.71 1001.82 1001.89 1001.92 1001.93 1001.91 1001.88 1001.85 1001.82 1001.81 1001.81 1001.82 1001.82 1001.81 1001.78 1001.73 1001.67 1001.60 1001.56 1001.57 1001.64
1008.01 1007.01 1006.00 1005.02 1004.08 1003.22 1002.45 1001.79 1001.26 1000.83 1000.52 1000.30 1000.17 1000.12 1000.13 1000.20 1000.31 1000.46 1000.63 1000.81 1000.98 1001.14 1001.27 1001.37 1001.42 1001.45 1001.44 1001.41 1001.37 1001.33 1001.29 1001.27 1001.26 1001.25 1001.24 1001.24 1001.22 1001.20 1001.19 1001.19 1001.23 1001.32 1001.48
Thickness
5757 5759 5760 5760 5758 5755 5750 5747 5742 5737 5733 5731 5728 5725 5722 5722 5720 5719 5720 5719 5718 5719 5718 5717 5717 5717 5716 5716 5716 5714 5713 5713 5713 5713 5713 5716 5720 5721 5723 5724 5725 5726 5727
5747 5747 5747 5747 5745 5742 5740 5737 5733 5730 5727 5725 5724 5722 5719 5718 5715 5714 5713 5714 5714 5715 5713 5712 5712 5712 5712 5712 5711 5709 5708 5708 5709 5707 5705 5705 5710 5716 5720 5720 5722 5723 5724
5735 5736 5736 5735 5734 5729 5727 5727 5725 5722 5719 5719 5717 5715 5713 5710 5707 5705 5705 5706 5708 5707 5707 5708 5707 5707 5708 5706 5706 5705 5704 5702 5703 5704 5702 5698 5699 5705 5711 5715 5716 5718 5719
5726 5724 5723 5722 5720 5718 5718 5717 5714 5713 5711 5710 5707 5705 5701 5699 5697 5697 5698 5698 5699 5699 5701 5701 5701 5701 5701 5700 5701 5701 5701 5699 5697 5699 5700 5700 5701 5698 5700 5706 5710 5712 5714
5716 5713 5712 5712 5710 5708 5706 5706 5705 5704 5702 5700 5698 5695 5692 5690 5689 5690 5689 5689 5689 5690 5692 5692 5692 5693 5693 5694 5695 5696 5695 5695 5694 5694 5695 5695 5695 5696 5694 5696 5701 5705 5709
5708 5705 5704 5702 5700 5698 5696 5695 5693 5692 5690 5688 5687 5685 5682 5680 5679 5678 5678 5678 5679 5680 5681 5682 5683 5684 5684 5686 5687 5689 5689 5689 5689 5690 5691 5691 5691 5690 5691 5691 5693 5696 5702
5699 5697 5695 5692 5690 5688 5686 5684 5681 5679 5678 5676 5675 5674 5672 5670 5669 5667 5667 5667 5667 5667 5669 5670 5672 5673 5674 5676 5678 5680 5681 5682 5683 5684 5685 5687 5689 5690 5689 5689 5689 5690 5695
5692 5689 5686 5683 5681 5678 5676 5673 5670 5668 5666 5664 5662 5661 5658 5656 5656 5655 5654 5654 5654 5655 5656 5657 5659 5661 5663 5665 5667 5669 5671 5673 5675 5677 5679 5681 5684 5685 5686 5686 5685 5685 5688
5685 5682 5679 5676 5673 5670 5667 5663 5659 5656 5653 5650 5648 5646 5644 5642 5641 5640 5640 5639 5639 5641 5642 5643 5645 5647 5649 5652 5654 5657 5660 5663 5666 5668 5671 5673 5676 5678 5681 5682 5683 5681 5682
5678 5675 5672 5669 5666 5662 5657 5653 5648 5644 5641 5637 5634 5632 5629 5627 5626 5624 5623 5623 5623 5624 5625 5627 5629 5631 5634 5637 5640 5643 5647 5650 5654 5657 5661 5664 5668 5670 5673 5676 5677 5679 5679
5668 5665 5662 5659 5655 5650 5645 5640 5636 5631 5627 5624 5620 5617 5615 5613 5610 5608 5607 5607 5606 5607 5608 5610 5612 5614 5617 5621 5624 5628 5632 5636 5640 5644 5649 5653 5658 5661 5664 5667 5670 5672 5674
5659 5655 5651 5647 5641 5636 5632 5626 5622 5617 5613 5610 5606 5603 5600 5596 5593 5591 5591 5590 5589 5589 5590 5592 5594 5596 5600 5603 5607 5611 5616 5620 5625 5630 5635 5641 5646 5650 5654 5658 5662 5666 5669
5648 5643 5638 5632 5627 5622 5617 5612 5607 5603 5599 5594 5590 5586 5583 5580 5578 5577 5575 5573 5572 5572 5572 5573 5575 5578 5582 5586 5590 5594 5599 5604 5609 5615 5621 5627 5633 5639 5644 5649 5653 5657 5661
5635 5629 5623 5618 5613 5608 5603 5599 5594 5590 5585 5580 5576 5572 5570 5567 5566 5564 5562 5560 5559 5557 5557 5557 5559 5562 5565 5569 5573 5577 5582 5588 5593 5599 5606 5612 5619 5627 5633 5639 5644 5649 5652
5623 5617 5611 5606 5601 5596 5592 5587 5582 5577 5572 5566 5561 5558 5557 5555 5553 5551 5549 5549 5547 5547 5546 5546 5547 5548 5550 5554 5558 5561 5567 5571 5577 5584 5591 5598 5606 5614 5622 5629 5635 5640 5644
5613 5608 5602 5596 5591 5585 5581 5575 5569 5564 5558 5552 5549 5546 5543 5541 5539 5539 5538 5537 5537 5537 5536 5536 5537 5538 5540 5544 5546 5548 5552 5557 5562 5568 5576 5583 5592 5602 5610 5618 5626 5632 5637
5604 5598 5592 5586 5580 5575 5568 5562 5557 5551 5545 5540 5536 5533 5530 5528 5528 5528 5527 5527 5527 5527 5527 5528 5529 5529 5531 5533 5535 5538 5540 5544 5548 5554 5561 5570 5580 5588 5597 5607 5615 5624 5631
5596 5590 5583 5577 5571 5564 5557 5551 5545 5539 5533 5528 5524 5521 5519 5518 5518 5517 5517 5517 5518 5518 5519 5520 5522 5523 5525 5526 5527 5529 5531 5534 5538 5542 5548 5556 5566 5575 5584 5594 5605 5615 5624
5587 5580 5574 5568 5561 5554 5547 5540 5534 5528 5522 5518 5514 5511 5509 5507 5507 5507 5508 5509 5509 5510 5511 5513 5515 5516 5519 5521 5522 5522 5524 5527 5531 5535 5540 5546 5555 5564 5573 5583 5594 5605 5615
5579 5573 5566 5559 5551 5545 5537 5529 5523 5517 5512 5508 5505 5502 5499 5498 5497 5498 5499 5500 5500 5503 5506 5507 5509 5511 5514 5516 5517 5518 5519 5521 5525 5528 5533 5538 5546 5553 5562 5573 5584 5596 5607
5572 5566 5558 5550 5543 5537 5528 5520 5514 5509 5505 5500 5496 5493 5490 5488 5489 5489 5491 5491 5493 5495 5498 5502 5504 5506 5509 5511 5512 5513 5514 5517 5520 5523 5528 5533 5539 5545 5553 5564 5576 5589 5597
5567 5560 5552 5545 5538 5530 5521 5514 5508 5503 5497 5493 5488 5485 5483 5481 5484 5482 5483 5485 5487 5489 5493 5495 5499 5502 5505 5507 5509 5511 5512 5514 5516 5520 5524 5529 5533 5539 5547 5556 5568 5577 5586
5561 5555 5547 5541 5534 5526 5517 5509 5504 5498 5493 5488 5484 5481 5478 5477 5476 5476 5477 5480 5482 5485 5489 5492 5496 5499 5502 5504 5506 5508 5510 5511 5512 5516 5519 5523 5527 5533 5541 5550 5560 5569 5580
5558 5551 5544 5538 5532 5525 5516 5507 5501 5495 5490 5486 5482 5479 5476 5475 5473 5473 5474 5477 5480 5483 5486 5490 5493 5496 5499 5501 5503 5505 5507 5508 5509 5511 5514 5517 5521 5527 5536 5544 5554 5565 5577
5555 5549 5542 5536 5530 5524 5516 5508 5501 5494 5489 5485 5481 5478 5476 5474 5473 5473 5474 5477 5480 5482 5485 5489 5491 5494 5497 5500 5501 5502 5503 5505 5506 5507 5509 5513 5518 5524 5532 5541 5551 5562 5573
5554 5548 5542 5536 5530 5524 5517 5509 5502 5495 5489 5485 5482 5479 5476 5475 5475 5475 5476 5478 5480 5482 5484 5487 5489 5493 5495 5497 5498 5498 5499 5499 5500 5502 5507 5511 5517 5523 5531 5540 5549 5560 5570